Location: Aldenham
(51.6667°N, 0.3500°W)
Time: 17:18:44
(UTC+00:00)

Vanguard 2 Rocket - Pass Details

Date: 23 February 2026
Orbit: 553 x 3286 km, 32.9° (Epoch: 11 March)

Event Time Altitude Azimuth Distance (km) Brightness Sun altitude
Rises 08:06:08 0° 181° (S) 6,832 11.8 8.8°
Reaches altitude 10° 08:14:14 10° 161° (SSE) 6,128 12.0 9.9°
Maximum altitude 08:22:31 14° 135° (SE) 5,853 13.1 11.0°
Drops below altitude 10° 08:30:43 10° 110° (ESE) 6,106 13.2 12.0°
Sets 08:38:35 0° 90° (E) 6,802 12.3 13.0°
